Meteo Giornale » Osservazioni meteo Italia » Bergamo-Orio Al Serio

ore: 22:50 - Osservazioni Meteo Bergamo-Orio Al Serio
Lat. 45° 40' N Lon. 9° 42' E Alt. 238 metri s.l.m.

sereno Europe/Rome

24 °C

Sereno

Temp. 24 Ore

20 °C

31 °C

Nord/Nord-Est

9.3 Km/h

Dew point 17 °C

Umidità 64 %

Visibilità  10 Km

Il sole sorge alle ore 05:49

Il sole tramonta alle ore 21:06

Data e Ora Cielo e Fenomeni T °C DP °C Um. % Pres. hPa Vis. km Vento km/h
Oggi h: 22:50 sereno Sereno 24 17 64 1013 10 N/NE 9.3
Oggi h: 22:20 sereno Sereno 25 17 61 1013 10 N/NE 9.3
Oggi h: 21:50 sereno Sereno 25 16 57 1013 10 NE 9.3
Oggi h: 21:20 sereno Sereno 27 15 47 1013 10 N 1.8
Oggi h: 20:50 sereno Sereno 28 15 45 1013 10 S 7.4
Oggi h: 20:20 sereno Sereno 29 15 42 1012 10 S/SO 11.1
Oggi h: 19:50 sereno Sereno 29 14 39 1012 10 S 13
Oggi h: 19:20 sereno Sereno 30 14 37 1012 10 S 9.3
Oggi h: 18:20 sereno Sereno 30 13 35 1012 10 S 9.3
Oggi h: 17:50 sereno Sereno 31 13 33 1012 10 S 11.1
Oggi h: 17:20 sereno Sereno 31 14 35 1013 10 N 9.3
Oggi h: 16:50 sereno Sereno 31 14 35 1013 10 S 11.1
Oggi h: 16:20 sereno Sereno 31 15 37 1013 10 S 13
Oggi h: 15:50 sereno Sereno 31 15 37 1013 10 S 13
Oggi h: 15:20 sereno Sereno 31 16 40 1013 10 S 13
Oggi h: 14:20 sereno Sereno 30 17 45 1014 10 S/SO 13
Oggi h: 13:50 sereno Sereno 30 17 45 1014 10 S/SE 9.3
Oggi h: 13:20 sereno Sereno 30 16 42 1014 10 S/SO 9.3
Oggi h: 12:50 sereno Sereno 29 16 45 1014 10 S/SO 7.4
Oggi h: 12:20 sereno Sereno 29 15 42 1014 10 O 7.4
Oggi h: 11:50 sereno Sereno 28 16 48 1014 10 S/SO 9.3
Oggi h: 11:20 sereno Sereno 28 16 48 1014 10 N 7.4
Oggi h: 10:50 sereno Sereno 28 16 48 1014 10 S/SE 9.3
Oggi h: 10:20 sereno Sereno 27 14 44 1014 10 N 5.5
Oggi h: 09:50 sereno Sereno 27 14 44 1014 10 N 3.7
Oggi h: 09:20 sereno Sereno 26 14 47 1014 10 N 1.8
Oggi h: 08:50 sereno Sereno 26 16 54 1014 10 N 1.8
Oggi h: 08:20 sereno Sereno 24 15 57 1014 10 N 3.7
Oggi h: 07:50 sereno Sereno 23 16 64 1014 10 N 5.5
Oggi h: 07:20 sereno Sereno 22 15 64 1014 10 N/NE 7.4
Oggi h: 06:20 sereno Sereno 20 15 72 1014 10 N/NO 11.1
Oggi h: 05:50 sereno Sereno 20 14 68 1014 10 N 7.4
Oggi h: 05:20 sereno Sereno 20 14 68 1014 10 N 5.5
Oggi h: 04:50 sereno Sereno 21 14 64 1013 10 N 5.5
Oggi h: 04:20 sereno Sereno 20 14 68 1013 10 E 7.4
Oggi h: 03:50 sereno Sereno 21 14 64 1013 10 N/NE 13
Oggi h: 03:20 sereno Sereno 21 14 64 1014 10 N 9.3
Oggi h: 02:50 sereno Sereno 22 14 60 1014 10 N 13
Oggi h: 02:20 sereno Sereno 22 15 64 1014 10 N 11.1
Oggi h: 01:50 sereno Sereno 22 15 64 1014 10 N 11.1
Oggi h: 01:20 sereno Sereno 22 15 64 1014 10 N 13
Oggi h: 00:50 sereno Sereno 23 15 60 1014 10 N 11.1
Oggi h: 00:20 sereno Sereno 22 15 64 1014 10 N 9.3
Ieri h: 23:50 sereno Sereno 22 15 64 1013 10 N 7.4